User: anonymous   Login
Location: Theydon Bois
(51.6750°N, 0.1050°E)
Time: 13:55:36
(UTC+00:00)
Language:

USA 186 - Orbit

View from above orbital plane
View from above orbital plane
View from above satellite
View from above satellite

Ground track
Ground track

The orbit data is extracted from the following two-line orbital elements,

1 28888U 05042A   18048.83798743 0.00015000  00000-0  60915-4 0    09
2 28888  96.8184  88.9942 0133936 269.9041  90.0957 15.73569760    07
Epoch (UTC): 17 February 2018 20:06:42
Eccentricity: 0.0133936
inclination: 96.8184°
perigee height: 258 km
apogee height: 439 km
right ascension of ascending node: 88.9942°
argument of perigee: 269.9041°
revolutions per day: 15.73569760
mean anomaly at epoch: 90.0957°
orbit number at epoch: 0

The dashed part of the orbit path shows where the satellite is in the earth's shadow,  

DLR